Monatsübersicht für November 2018

 
Wetter
Zeitraffer
Tageslänge (hh:mm)
Höchsttemperatur in °C
Uhrzeit
Tiefsttemperatur in °C
Uhrzeit
Luftfeuchte (max., in %)
Uhrzeit
Luftfeuchte (min., in %)
Uhrzeit
Luftdruck (max., in hPa)
Uhrzeit
Luftdruck (min., in hPa)
Uhrzeit
Luftdruck (Ø, in hPa)
Regenrate (max, mm/h)
Uhrzeit
Niederschlag in mm
Verdunstung in mm
Solar in W/m² (Ø)
Solar in W/m² (max.)
UV-Index (max.)
Sonnenscheindauer (hh:mm)
Windrichtung (Ø)
Windstärke (Ø in km/h)
Windstärke (Ø in bft)
Windböe (max., in km/h)
Uhrzeit
Windböe (max., in bft)
Uhrzeit
Taupunkt (max., in °C)
Uhrzeit
Taupunkt (min., in °C)
Uhrzeit
Windchill (min., in °C)
Uhrzeit
Gewitterindex (max.)
Uhrzeit
01
09:37
12.3
12:35 Uhr
3.1
07:20 Uhr

93
07:40 Uhr
72
12:35 Uhr
1019.0
01:05 Uhr

1011.0
20:00 Uhr
1014.2
0,000
00:00 Uhr
0,000
0.762
124
427
10:50 Uhr
1.0
10:45 Uhr

02:30:00
3,9
1
16,1
11:25 Uhr

3
8.3
18:50 Uhr
1.7
06:00 Uhr
3.1
07:20 Uhr
0
00:00 Uhr
02
09:33
14.4
13:55 Uhr
4.7
23:20 Uhr

93
22:00 Uhr
63
14:05 Uhr
1028.4
23:25 Uhr

1014.0
00:00 Uhr
1021.4
0,000
00:00 Uhr
0,000
0.787
140
383
12:35 Uhr
0.9
12:10 Uhr

03:40:00
2,3
1
19,3
14:15 Uhr

3
7.7
13:55 Uhr
3.4
20:45 Uhr
4.7
23:20 Uhr
0
00:00 Uhr
03
09:29
13.1
13:00 Uhr
3.1
21:05 Uhr

96
06:25 Uhr
63
13:05 Uhr
1030.6
10:30 Uhr

1027.4
23:50 Uhr
1029.3
0,000
00:00 Uhr
0,000
0.610
125
360
10:35 Uhr
1.0
12:20 Uhr

01:45:00
1,2
0
8,0
10:35 Uhr

2
7.5
10:35 Uhr
1.9
21:05 Uhr
3.1
21:05 Uhr
0
00:00 Uhr
04
09:25
10.4
14:55 Uhr
3.4
01:35 Uhr

96
20:30 Uhr
90
13:35 Uhr
1027.3
00:00 Uhr

1016.7
23:35 Uhr
1021.5
0,000
00:00 Uhr
0,000
0.203
40
75
10:25 Uhr
0.0
00:00 Uhr

00:00:00
6,9
1
22,5
18:45 Uhr

4
9.7
20:30 Uhr
2.5
01:30 Uhr
3.4
01:35 Uhr
0
00:00 Uhr
05
09:21
14.3
14:50 Uhr
10.0
07:30 Uhr

96
00:00 Uhr
73
22:15 Uhr
1016.8
00:00 Uhr

1010.5
23:50 Uhr
1013.6
0,000
00:00 Uhr
0,000
0.762
112
288
11:00 Uhr
0.8
11:45 Uhr

02:05:00
8,4
2
24,1
00:45 Uhr

4
10.7
15:25 Uhr
7.0
23:25 Uhr
5.7
09:10 Uhr
0
00:00 Uhr
06
09:19
16.7
14:05 Uhr
9.2
04:10 Uhr

89
22:23 Uhr
67
13:25 Uhr
1012.0
08:55 Uhr

1010.3
01:30 Uhr
1011.3
0,000
00:00 Uhr
0,000
1.321
173
309
11:55 Uhr
0.8
11:15 Uhr

06:25:00
5,5
1
19,3
14:15 Uhr

3
10.7
14:40 Uhr
6.4
03:55 Uhr
8.7
05:10 Uhr
0
00:00 Uhr
07
09:15
15.6
13:50 Uhr
6.0
22:35 Uhr

96
22:20 Uhr
73
13:35 Uhr
1015.4
23:45 Uhr

1010.4
03:25 Uhr
1012.3
0,000
00:00 Uhr
0,000
0.864
151
327
12:20 Uhr
0.8
11:10 Uhr

05:50:00
2,8
1
14,5
07:00 Uhr

3
11.0
13:50 Uhr
5.1
22:35 Uhr
6.0
22:35 Uhr
0
00:00 Uhr
08
09:11
15.1
13:55 Uhr
3.4
06:45 Uhr

98
07:20 Uhr
73
13:55 Uhr
1022.6
21:15 Uhr

1015.3
00:00 Uhr
1020.2
0,000
00:00 Uhr
0,000
0.559
118
343
12:15 Uhr
0.7
12:10 Uhr

02:15:00
1,5
0
19,3
12:05 Uhr

3
10.5
10:50 Uhr
3.0
06:45 Uhr
3.4
06:45 Uhr
0
00:00 Uhr
09
09:08
10.1
12:00 Uhr
4.2
02:50 Uhr

98
10:05 Uhr
92
12:30 Uhr
1021.9
00:00 Uhr

1014.2
23:50 Uhr
1018.4
2,400
07:30 Uhr
0,200
0.305
71
220
11:45 Uhr
0.7
11:55 Uhr

00:20:00
4,1
1
17,7
14:55 Uhr

3
9.1
11:45 Uhr
3.5
02:45 Uhr
4.2
02:50 Uhr
0
00:00 Uhr
10
09:04
12.1
13:45 Uhr
6.6
06:15 Uhr

98
03:10 Uhr
81
13:50 Uhr
1014.3
00:05 Uhr

1009.9
15:55 Uhr
1011.6
0,000
00:00 Uhr
0,000
0.483
108
306
12:45 Uhr
0.6
11:50 Uhr

02:05:00
6,3
1
20,9
13:10 Uhr

4
9.1
13:40 Uhr
6.1
23:50 Uhr
3.5
06:55 Uhr
0
00:00 Uhr
11
09:02
9.8
15:00 Uhr
5.4
06:20 Uhr

96
00:35 Uhr
92
20:20 Uhr
1015.9
23:50 Uhr

1010.6
01:10 Uhr
1012.4
2,400
11:20 Uhr
1,400
0.305
59
222
14:30 Uhr
0.5
11:15 Uhr

01:10:00
4,5
1
17,7
09:45 Uhr

3
8.8
14:45 Uhr
4.8
06:05 Uhr
4.2
09:00 Uhr
0
00:00 Uhr
12
08:58
13.2
13:55 Uhr
8.0
07:25 Uhr

95
07:30 Uhr
80
14:30 Uhr
1018.4
09:20 Uhr

1016.1
00:00 Uhr
1017.2
2,400
12:35 Uhr
0,200
0.559
74
191
11:05 Uhr
0.7
11:15 Uhr

00:35:00
4,4
1
20,9
19:15 Uhr

4
10.2
12:50 Uhr
7.1
07:00 Uhr
8.0
07:25 Uhr
0
00:00 Uhr
13
08:54
11.7
14:30 Uhr
7.4
23:10 Uhr

98
10:00 Uhr
81
00:00 Uhr
1026.5
23:50 Uhr

1017.9
00:00 Uhr
1021.7
2,400
04:45 Uhr
6,400
0.152
39
127
13:45 Uhr
0.0
00:00 Uhr

00:00:00
3,2
1
20,9
18:55 Uhr

4
10.9
14:30 Uhr
6.3
22:40 Uhr
6.4
23:45 Uhr
0
00:00 Uhr
14
08:51
9.2
12:40 Uhr
4.6
20:25 Uhr

98
22:35 Uhr
90
12:30 Uhr
1030.6
20:20 Uhr

1026.4
00:00 Uhr
1029.3
0,000
00:00 Uhr
0,000
0.330
74
197
12:25 Uhr
0.5
11:05 Uhr

00:35:00
4,0
1
22,5
10:10 Uhr

4
7.8
12:40 Uhr
4.0
20:25 Uhr
3.8
09:15 Uhr
0
00:00 Uhr
15
08:48
10.5
14:40 Uhr
5.1
23:35 Uhr

98
00:20 Uhr
76
15:05 Uhr
1032.9
23:35 Uhr

1029.8
05:15 Uhr
1031.0
0,000
00:00 Uhr
0,000
0.559
76
152
14:15 Uhr
0.5
11:45 Uhr

00:39:00
6,0
1
22,5
22:20 Uhr

4
7.2
14:15 Uhr
3.3
23:30 Uhr
1.6
21:05 Uhr
0
00:00 Uhr


 
Wetter
Zeitraffer
Tageslänge (hh:mm)
Höchsttemperatur in °C
Uhrzeit
Tiefsttemperatur in °C
Uhrzeit
Luftfeuchte (max., in %)
Uhrzeit
Luftfeuchte (min., in %)
Uhrzeit
Luftdruck (max., in hPa)
Uhrzeit
Luftdruck (min., in hPa)
Uhrzeit
Luftdruck (Ø, in hPa)
Regenrate (max, mm/h)
Uhrzeit
Niederschlag in mm
Verdunstung in mm
Solar in W/m² (Ø)
Solar in W/m² (max.)
UV-Index (max.)
Sonnenscheindauer (hh:mm)
Windrichtung (Ø)
Windstärke (Ø in km/h)
Windstärke (Ø in bft)
Windböe (max., in km/h)
Uhrzeit
Windböe (max., in bft)
Uhrzeit
Taupunkt (max., in °C)
Uhrzeit
Taupunkt (min., in °C)
Uhrzeit
Windchill (min., in °C)
Uhrzeit
Gewitterindex (max.)
Uhrzeit
16
08:45
8.3
12:45 Uhr
2.6
06:15 Uhr

92
07:30 Uhr
70
12:40 Uhr
1038.2
23:50 Uhr

1032.8
00:15 Uhr
1035.6
0,000
00:00 Uhr
0,000
1.067
151
277
11:55 Uhr
0.6
10:55 Uhr

05:55:00
9,9
2
33,8
18:35 Uhr

5
3.6
15:15 Uhr
0.8
23:30 Uhr
-2.7
20:10 Uhr
0
00:00 Uhr
17
08:42
6.0
13:00 Uhr
-2.9
22:25 Uhr

94
07:30 Uhr
55
14:15 Uhr
1039.7
09:25 Uhr

1037.7
21:30 Uhr
1038.6
0,000
00:00 Uhr
0,000
0.813
148
277
12:00 Uhr
0.6
11:10 Uhr

06:05:00
6,7
1
24,1
00:40 Uhr

4
1.2
11:00 Uhr
-4.7
22:25 Uhr
-3.4
08:05 Uhr
0
00:00 Uhr
18
08:38
5.1
11:15 Uhr
-5.2
06:05 Uhr

96
20:10 Uhr
57
11:15 Uhr
1037.6
00:00 Uhr

1025.9
23:45 Uhr
1031.6
0,000
00:00 Uhr
0,000
0.330
85
335
11:00 Uhr
0.5
10:55 Uhr

01:05:00
4,0
1
22,5
21:50 Uhr

4
4.3
20:35 Uhr
-6.1
06:00 Uhr
-5.2
06:05 Uhr
0
00:00 Uhr
19
08:36
4.7
11:25 Uhr
2.3
02:25 Uhr

95
01:20 Uhr
82
23:30 Uhr
1025.8
00:00 Uhr

1023.0
15:55 Uhr
1024.1
4,800
12:30 Uhr
2,000
0.330
58
319
12:50 Uhr
0.0
00:00 Uhr

00:30:00
11,1
2
41,8
22:40 Uhr

6
2.9
14:25 Uhr
0.8
23:30 Uhr
-5.5
23:30 Uhr
0
00:00 Uhr
20
08:33
3.4
00:00 Uhr
1.4
15:05 Uhr

88
08:40 Uhr
77
01:30 Uhr
1023.4
00:00 Uhr

1017.9
15:55 Uhr
1020.3
0,000
00:00 Uhr
0,000
0.610
20
61
12:35 Uhr
0.0
00:00 Uhr

00:00:00
16,8
3
48,3
00:15 Uhr

6
0.8
00:00 Uhr
-1.9
15:45 Uhr
-8.6
18:25 Uhr
0
00:00 Uhr
21
08:30
1.6
00:00 Uhr
0.4
08:15 Uhr

87
23:10 Uhr
79
01:20 Uhr
1025.4
21:05 Uhr

1019.9
00:00 Uhr
1022.8
0,000
00:00 Uhr
0,000
0.584
37
72
12:35 Uhr
0.0
00:00 Uhr

00:00:00
12,0
2
33,8
04:35 Uhr

5
-1.2
15:00 Uhr
-2.4
03:55 Uhr
-7.6
08:50 Uhr
0
00:00 Uhr
22
08:27
0.8
10:50 Uhr
-0.2
21:10 Uhr

91
20:55 Uhr
86
10:35 Uhr
1026.1
10:40 Uhr

1024.9
05:10 Uhr
1025.3
0,000
00:00 Uhr
0,000
0.305
29
50
11:30 Uhr
0.0
00:00 Uhr

00:00:00
10,8
2
29,0
06:35 Uhr

4
-1.0
01:50 Uhr
-1.6
17:10 Uhr
-6.9
22:00 Uhr
0
00:00 Uhr
23
08:25
2.6
21:30 Uhr
-0.2
03:45 Uhr

96
07:40 Uhr
88
00:50 Uhr
1025.4
00:00 Uhr

1018.5
22:45 Uhr
1022.6
0,000
00:00 Uhr
0,000
0.025
23
37
12:25 Uhr
0.0
00:00 Uhr

00:00:00
5,3
1
19,3
01:20 Uhr

3
1.9
18:25 Uhr
-1.4
00:00 Uhr
-3.4
01:20 Uhr
0
00:00 Uhr
24
08:22
2.9
22:45 Uhr
-1.3
05:25 Uhr

98
06:05 Uhr
95
00:00 Uhr
1018.6
00:00 Uhr

1013.9
14:30 Uhr
1015.2
0,000
00:00 Uhr
0,000
0.152
39
61
11:10 Uhr
0.0
00:00 Uhr

00:00:00
3,6
1
14,5
14:25 Uhr

3
2.5
22:45 Uhr
-1.7
05:25 Uhr
-1.8
06:55 Uhr
0
00:00 Uhr
25
08:20
5.1
13:05 Uhr
2.3
23:25 Uhr

98
04:05 Uhr
92
22:15 Uhr
1014.2
00:00 Uhr

1012.6
15:05 Uhr
1013.3
0,000
00:00 Uhr
0,000
0.102
34
86
10:45 Uhr
0.0
00:00 Uhr

00:00:00
5,0
1
27,4
22:30 Uhr

4
4.3
13:00 Uhr
1.3
23:25 Uhr
-1.6
22:30 Uhr
0
00:00 Uhr
26
08:17
3.4
14:10 Uhr
-1.2
23:45 Uhr

96
02:05 Uhr
80
18:20 Uhr
1017.9
23:35 Uhr

1013.2
03:45 Uhr
1014.7
0,000
00:00 Uhr
0,000
0.203
38
96
10:40 Uhr
0.0
00:00 Uhr

00:00:00
7,0
1
29,0
11:40 Uhr

4
1.8
12:45 Uhr
-2.2
23:50 Uhr
-5.2
04:05 Uhr
0
00:00 Uhr
27
08:14
1.1
13:35 Uhr
-2.7
06:00 Uhr

94
00:35 Uhr
85
13:25 Uhr
1027.6
23:35 Uhr

1017.9
00:00 Uhr
1022.8
0,000
00:00 Uhr
0,000
0.127
44
81
11:55 Uhr
0.0
00:00 Uhr

00:00:00
1,7
0
12,9
03:40 Uhr

2
-0.9
21:30 Uhr
-3.7
06:45 Uhr
-2.7
06:00 Uhr
0
00:00 Uhr
28
08:12
2.8
13:50 Uhr
-3.3
07:35 Uhr

95
08:15 Uhr
62
14:10 Uhr
1030.4
09:45 Uhr

1027.6
01:50 Uhr
1028.9
0,000
00:00 Uhr
0,000
0.686
128
227
11:40 Uhr
0.0
00:00 Uhr

05:15:00
7,1
2
30,6
23:10 Uhr

5
-1.0
00:00 Uhr
-4.2
07:50 Uhr
-9.6
23:10 Uhr
0
00:00 Uhr
29
08:09
2.1
14:35 Uhr
-2.3
03:20 Uhr

90
01:10 Uhr
54
19:20 Uhr
1028.1
00:00 Uhr

1018.0
23:45 Uhr
1023.3
0,000
00:00 Uhr
0,000
0.965
90
244
11:40 Uhr
0.0
00:00 Uhr

02:00:00
11,8
2
32,2
19:35 Uhr

5
-3.0
00:00 Uhr
-7.8
21:25 Uhr
-8.9
02:00 Uhr
0
00:00 Uhr
30
08:07
1.2
11:50 Uhr
0.0
00:35 Uhr

94
23:35 Uhr
58
00:20 Uhr
1018.8
00:20 Uhr

1015.2
22:15 Uhr
1016.3
2,400
13:45 Uhr
3,200
0.483
35
72
12:40 Uhr
0.0
00:00 Uhr

00:00:00
8,1
2
27,4
01:15 Uhr

4
-0.8
16:15 Uhr
-7.2
00:20 Uhr
-6.4
01:15 Uhr
0
00:00 Uhr